owner,sensor,date,latitude,longitude,air_pressure(mBar),qcFlag 
COMPS,ioos:station:USF.COMPS:C12:1,2019-02-01T00:05:00Z,27.4980,-83.7220,1022.99,1111122 
COMPS,ioos:station:USF.COMPS:C12:1,2019-02-01T00:35:00Z,27.4980,-83.7220,1023.25,1111122 
COMPS,ioos:station:USF.COMPS:C12:1,2019-02-01T01:05:00Z,27.4980,-83.7220,1023.16,1111122 
COMPS,ioos:station:USF.COMPS:C12:1,2019-02-01T01:35:00Z,27.4980,-83.7220,1023.33,1111122 
COMPS,ioos:station:USF.COMPS:C12:1,2019-02-01T02:05:00Z,27.4980,-83.7220,1023.45,1111122 
COMPS,ioos:station:USF.COMPS:C12:1,2019-02-01T02:35:00Z,27.4980,-83.7220,1023.78,1111122 
COMPS,ioos:station:USF.COMPS:C12:1,2019-02-01T03:05:00Z,27.4980,-83.7220,1023.69,1111122 
COMPS,ioos:station:USF.COMPS:C12:1,2019-02-01T03:35:00Z,27.4980,-83.7220,1023.53,1111122 
COMPS,ioos:station:USF.COMPS:C12:1,2019-02-01T04:05:00Z,27.4980,-83.7220,1023.42,1111122 
COMPS,ioos:station:USF.COMPS:C12:1,2019-02-01T04:35:00Z,27.4980,-83.7220,1023.36,1111122 
COMPS,ioos:station:USF.COMPS:C12:1,2019-02-01T05:05:00Z,27.4980,-83.7220,1023.14,1111122 
COMPS,ioos:station:USF.COMPS:C12:1,2019-02-01T05:35:00Z,27.4980,-83.7220,1022.66,1111122 
COMPS,ioos:station:USF.COMPS:C12:1,2019-02-01T06:05:00Z,27.4980,-83.7220,1022.52,1111122 
COMPS,ioos:station:USF.COMPS:C12:1,2019-02-01T06:35:00Z,27.4980,-83.7220,1022.5,1111122 
COMPS,ioos:station:USF.COMPS:C12:1,2019-02-01T07:05:00Z,27.4980,-83.7220,1022.38,1111122 
COMPS,ioos:station:USF.COMPS:C12:1,2019-02-01T07:35:00Z,27.4980,-83.7220,1022.07,1111122 
COMPS,ioos:station:USF.COMPS:C12:1,2019-02-01T08:05:00Z,27.4980,-83.7220,1021.64,1111122 
COMPS,ioos:station:USF.COMPS:C12:1,2019-02-01T08:35:00Z,27.4980,-83.7220,1021.53,1111122 
COMPS,ioos:station:USF.COMPS:C12:1,2019-02-01T09:05:00Z,27.4980,-83.7220,1021.81,1111122 
COMPS,ioos:station:USF.COMPS:C12:1,2019-02-01T09:35:00Z,27.4980,-83.7220,1021.62,1111122 
COMPS,ioos:station:USF.COMPS:C12:1,2019-02-01T10:05:00Z,27.4980,-83.7220,1021.91,1111122 
COMPS,ioos:station:USF.COMPS:C12:1,2019-02-01T10:35:00Z,27.4980,-83.7220,1022.12,1111122 
COMPS,ioos:station:USF.COMPS:C12:1,2019-02-01T11:05:00Z,27.4980,-83.7220,1022.3,1111122 
COMPS,ioos:station:USF.COMPS:C12:1,2019-02-01T11:35:00Z,27.4980,-83.7220,1022.67,1111122 
COMPS,ioos:station:USF.COMPS:C12:1,2019-02-01T12:05:00Z,27.4980,-83.7220,1022.44,1111122 
COMPS,ioos:station:USF.COMPS:C12:1,2019-02-01T12:35:00Z,27.4980,-83.7220,1022.41,1111122 
COMPS,ioos:station:USF.COMPS:C12:1,2019-02-01T13:05:00Z,27.4980,-83.7220,1022.55,1111122 
COMPS,ioos:station:USF.COMPS:C12:1,2019-02-01T13:35:00Z,27.4980,-83.7220,1022.85,1111122 
COMPS,ioos:station:USF.COMPS:C12:1,2019-02-01T14:05:00Z,27.4980,-83.7220,1023.23,1111122 
COMPS,ioos:station:USF.COMPS:C12:1,2019-02-01T14:35:00Z,27.4980,-83.7220,1023.4,1111122 
COMPS,ioos:station:USF.COMPS:C12:1,2019-02-01T15:05:00Z,27.4980,-83.7220,1023.71,1111122 
COMPS,ioos:station:USF.COMPS:C12:1,2019-02-01T15:35:00Z,27.4980,-83.7220,1023.72,1111122 
COMPS,ioos:station:USF.COMPS:C12:1,2019-02-01T16:05:00Z,27.4980,-83.7220,1023.75,1111122 
COMPS,ioos:station:USF.COMPS:C12:1,2019-02-01T16:35:00Z,27.4980,-83.7220,1023.32,1111122 
COMPS,ioos:station:USF.COMPS:C12:1,2019-02-01T17:05:00Z,27.4980,-83.7220,1023.23,1111122 
COMPS,ioos:station:USF.COMPS:C12:1,2019-02-01T17:35:00Z,27.4980,-83.7220,1022.64,1111122 
COMPS,ioos:station:USF.COMPS:C12:1,2019-02-01T18:05:00Z,27.4980,-83.7220,1022.27,1111122 
COMPS,ioos:station:USF.COMPS:C12:1,2019-02-01T18:35:00Z,27.4980,-83.7220,1021.65,1111122 
COMPS,ioos:station:USF.COMPS:C12:1,2019-02-01T19:05:00Z,27.4980,-83.7220,1021.47,1111122 
COMPS,ioos:station:USF.COMPS:C12:1,2019-02-01T19:35:00Z,27.4980,-83.7220,1021.05,1111122 
COMPS,ioos:station:USF.COMPS:C12:1,2019-02-01T20:05:00Z,27.4980,-83.7220,1020.77,1111122 
COMPS,ioos:station:USF.COMPS:C12:1,2019-02-01T20:35:00Z,27.4980,-83.7220,1020.52,1111122 
COMPS,ioos:station:USF.COMPS:C12:1,2019-02-01T21:05:00Z,27.4980,-83.7220,1020.57,1111122 
COMPS,ioos:station:USF.COMPS:C12:1,2019-02-01T21:35:00Z,27.4980,-83.7220,1020.51,1111122 
COMPS,ioos:station:USF.COMPS:C12:1,2019-02-01T22:05:00Z,27.4980,-83.7220,1020.8,1111122 
COMPS,ioos:station:USF.COMPS:C12:1,2019-02-01T22:35:00Z,27.4980,-83.7220,1020.85,1111122 
COMPS,ioos:station:USF.COMPS:C12:1,2019-02-01T23:05:00Z,27.4980,-83.7220,1021.06,1111122 
COMPS,ioos:station:USF.COMPS:C12:1,2019-02-01T23:35:00Z,27.4980,-83.7220,1021.15,1111122 
COMPS,ioos:station:USF.COMPS:C12:1,2019-02-02T00:05:00Z,27.4980,-83.7220,1021.17,1111122 
COMPS,ioos:station:USF.COMPS:C12:1,2019-02-02T00:35:00Z,27.4980,-83.7220,1021.42,1111122 
COMPS,ioos:station:USF.COMPS:C12:1,2019-02-02T01:05:00Z,27.4980,-83.7220,1021.21,1111122 
COMPS,ioos:station:USF.COMPS:C12:1,2019-02-02T01:35:00Z,27.4980,-83.7220,1021.35,1111122 
COMPS,ioos:station:USF.COMPS:C12:1,2019-02-02T02:05:00Z,27.4980,-83.7220,1021.02,1111122 
COMPS,ioos:station:USF.COMPS:C12:1,2019-02-02T02:35:00Z,27.4980,-83.7220,1021.17,1111122 
COMPS,ioos:station:USF.COMPS:C12:1,2019-02-02T03:05:00Z,27.4980,-83.7220,1021.2,1111122 
COMPS,ioos:station:USF.COMPS:C12:1,2019-02-02T03:35:00Z,27.4980,-83.7220,1021.39,1111122 
COMPS,ioos:station:USF.COMPS:C12:1,2019-02-02T04:05:00Z,27.4980,-83.7220,1021.51,1111122 
COMPS,ioos:station:USF.COMPS:C12:1,2019-02-02T04:35:00Z,27.4980,-83.7220,1021.2,1111122 
COMPS,ioos:station:USF.COMPS:C12:1,2019-02-02T05:05:00Z,27.4980,-83.7220,1020.9,1111122 
COMPS,ioos:station:USF.COMPS:C12:1,2019-02-02T05:35:00Z,27.4980,-83.7220,1020.84,1111122 
COMPS,ioos:station:USF.COMPS:C12:1,2019-02-02T06:05:00Z,27.4980,-83.7220,1020.52,1111122 
COMPS,ioos:station:USF.COMPS:C12:1,2019-02-02T06:35:00Z,27.4980,-83.7220,1020.47,1111122 
COMPS,ioos:station:USF.COMPS:C12:1,2019-02-02T07:05:00Z,27.4980,-83.7220,1020.25,1111122 
COMPS,ioos:station:USF.COMPS:C12:1,2019-02-02T07:35:00Z,27.4980,-83.7220,1020.21,1111122 
COMPS,ioos:station:USF.COMPS:C12:1,2019-02-02T08:05:00Z,27.4980,-83.7220,1019.93,1111122 
COMPS,ioos:station:USF.COMPS:C12:1,2019-02-02T08:35:00Z,27.4980,-83.7220,1019.91,1111122 
COMPS,ioos:station:USF.COMPS:C12:1,2019-02-02T09:05:00Z,27.4980,-83.7220,1019.74,1111122 
COMPS,ioos:station:USF.COMPS:C12:1,2019-02-02T09:35:00Z,27.4980,-83.7220,1019.74,1111122 
COMPS,ioos:station:USF.COMPS:C12:1,2019-02-02T10:05:00Z,27.4980,-83.7220,1019.81,1111122 
COMPS,ioos:station:USF.COMPS:C12:1,2019-02-02T10:35:00Z,27.4980,-83.7220,1019.79,1111122 
COMPS,ioos:station:USF.COMPS:C12:1,2019-02-02T11:05:00Z,27.4980,-83.7220,1019.85,1111122 
COMPS,ioos:station:USF.COMPS:C12:1,2019-02-02T11:35:00Z,27.4980,-83.7220,1019.85,1111122 
COMPS,ioos:station:USF.COMPS:C12:1,2019-02-02T12:05:00Z,27.4980,-83.7220,1019.74,1111122 
COMPS,ioos:station:USF.COMPS:C12:1,2019-02-02T12:35:00Z,27.4980,-83.7220,1019.87,1111122 
COMPS,ioos:station:USF.COMPS:C12:1,2019-02-02T13:05:00Z,27.4980,-83.7220,1019.86,1111122 
COMPS,ioos:station:USF.COMPS:C12:1,2019-02-02T13:35:00Z,27.4980,-83.7220,1019.94,1111122 
COMPS,ioos:station:USF.COMPS:C12:1,2019-02-02T14:05:00Z,27.4980,-83.7220,1020.31,1111122 
COMPS,ioos:station:USF.COMPS:C12:1,2019-02-02T14:35:00Z,27.4980,-83.7220,1020.57,1111122 
COMPS,ioos:station:USF.COMPS:C12:1,2019-02-02T15:05:00Z,27.4980,-83.7220,1020.87,1111122 
COMPS,ioos:station:USF.COMPS:C12:1,2019-02-02T15:35:00Z,27.4980,-83.7220,1020.97,1111122 
COMPS,ioos:station:USF.COMPS:C12:1,2019-02-02T16:05:00Z,27.4980,-83.7220,1020.76,1111122 
COMPS,ioos:station:USF.COMPS:C12:1,2019-02-02T16:35:00Z,27.4980,-83.7220,1020.6,1111122 
COMPS,ioos:station:USF.COMPS:C12:1,2019-02-02T17:05:00Z,27.4980,-83.7220,1020.34,1111122 
COMPS,ioos:station:USF.COMPS:C12:1,2019-02-02T17:35:00Z,27.4980,-83.7220,1020.06,1111122 
COMPS,ioos:station:USF.COMPS:C12:1,2019-02-02T18:05:00Z,27.4980,-83.7220,1019.36,1111122 
COMPS,ioos:station:USF.COMPS:C12:1,2019-02-02T18:35:00Z,27.4980,-83.7220,1018.9,1111122 
COMPS,ioos:station:USF.COMPS:C12:1,2019-02-02T19:05:00Z,27.4980,-83.7220,1018.41,1111122 
COMPS,ioos:station:USF.COMPS:C12:1,2019-02-02T19:35:00Z,27.4980,-83.7220,1018.03,1111122 
COMPS,ioos:station:USF.COMPS:C12:1,2019-02-02T20:05:00Z,27.4980,-83.7220,1017.8,1111122 
COMPS,ioos:station:USF.COMPS:C12:1,2019-02-02T20:35:00Z,27.4980,-83.7220,1017.6,1111122 
COMPS,ioos:station:USF.COMPS:C12:1,2019-02-02T21:05:00Z,27.4980,-83.7220,1017.25,1111122 
COMPS,ioos:station:USF.COMPS:C12:1,2019-02-02T21:35:00Z,27.4980,-83.7220,1017.1,1111122 
COMPS,ioos:station:USF.COMPS:C12:1,2019-02-02T22:05:00Z,27.4980,-83.7220,1017.13,1111122 
COMPS,ioos:station:USF.COMPS:C12:1,2019-02-02T22:35:00Z,27.4980,-83.7220,1017.42,1111122 
COMPS,ioos:station:USF.COMPS:C12:1,2019-02-02T23:05:00Z,27.4980,-83.7220,1017.29,1111122 
COMPS,ioos:station:USF.COMPS:C12:1,2019-02-02T23:35:00Z,27.4980,-83.7220,1017.3,1111122 
COMPS,ioos:station:USF.COMPS:C12:1,2019-02-03T00:05:00Z,27.4980,-83.7220,1017.41,1111122 
COMPS,ioos:station:USF.COMPS:C12:1,2019-02-03T00:35:00Z,27.4980,-83.7220,1017.53,1111122 
COMPS,ioos:station:USF.COMPS:C12:1,2019-02-03T01:05:00Z,27.4980,-83.7220,1017.63,1111122 
COMPS,ioos:station:USF.COMPS:C12:1,2019-02-03T01:35:00Z,27.4980,-83.7220,1017.77,1111122 
COMPS,ioos:station:USF.COMPS:C12:1,2019-02-03T02:05:00Z,27.4980,-83.7220,1018.23,1111122 
COMPS,ioos:station:USF.COMPS:C12:1,2019-02-03T02:35:00Z,27.4980,-83.7220,1018.15,1111122 
COMPS,ioos:station:USF.COMPS:C12:1,2019-02-03T03:05:00Z,27.4980,-83.7220,1018.28,1111122 
COMPS,ioos:station:USF.COMPS:C12:1,2019-02-03T03:35:00Z,27.4980,-83.7220,1018.35,1111122 
COMPS,ioos:station:USF.COMPS:C12:1,2019-02-03T04:05:00Z,27.4980,-83.7220,1018.32,1111122 
COMPS,ioos:station:USF.COMPS:C12:1,2019-02-03T04:35:00Z,27.4980,-83.7220,1017.85,1111122 
COMPS,ioos:station:USF.COMPS:C12:1,2019-02-03T05:05:00Z,27.4980,-83.7220,1017.58,1111122 
COMPS,ioos:station:USF.COMPS:C12:1,2019-02-03T05:35:00Z,27.4980,-83.7220,1017.37,1111122 
COMPS,ioos:station:USF.COMPS:C12:1,2019-02-03T06:05:00Z,27.4980,-83.7220,1017.1,1111122 
COMPS,ioos:station:USF.COMPS:C12:1,2019-02-03T06:35:00Z,27.4980,-83.7220,1017.03,1111122 
COMPS,ioos:station:USF.COMPS:C12:1,2019-02-03T07:05:00Z,27.4980,-83.7220,1016.93,1111122 
COMPS,ioos:station:USF.COMPS:C12:1,2019-02-03T07:35:00Z,27.4980,-83.7220,1016.77,1111122 
COMPS,ioos:station:USF.COMPS:C12:1,2019-02-03T08:05:00Z,27.4980,-83.7220,1016.51,1111122 
COMPS,ioos:station:USF.COMPS:C12:1,2019-02-03T08:35:00Z,27.4980,-83.7220,1016.42,1111122 
COMPS,ioos:station:USF.COMPS:C12:1,2019-02-03T09:05:00Z,27.4980,-83.7220,1016.25,1111122 
COMPS,ioos:station:USF.COMPS:C12:1,2019-02-03T09:35:00Z,27.4980,-83.7220,1016.04,1111122 
COMPS,ioos:station:USF.COMPS:C12:1,2019-02-03T10:05:00Z,27.4980,-83.7220,1016.1,1111122 
COMPS,ioos:station:USF.COMPS:C12:1,2019-02-03T10:35:00Z,27.4980,-83.7220,1016.12,1111122 
COMPS,ioos:station:USF.COMPS:C12:1,2019-02-03T11:05:00Z,27.4980,-83.7220,1016.12,1111122 
COMPS,ioos:station:USF.COMPS:C12:1,2019-02-03T11:35:00Z,27.4980,-83.7220,1016.22,1111122 
COMPS,ioos:station:USF.COMPS:C12:1,2019-02-03T12:05:00Z,27.4980,-83.7220,1016.39,1111122 
COMPS,ioos:station:USF.COMPS:C12:1,2019-02-03T12:35:00Z,27.4980,-83.7220,1016.58,1111122 
COMPS,ioos:station:USF.COMPS:C12:1,2019-02-03T13:05:00Z,27.4980,-83.7220,1016.55,1111122 
COMPS,ioos:station:USF.COMPS:C12:1,2019-02-03T13:35:00Z,27.4980,-83.7220,1017.05,1111122 
COMPS,ioos:station:USF.COMPS:C12:1,2019-02-03T14:05:00Z,27.4980,-83.7220,1017.09,1111122 
COMPS,ioos:station:USF.COMPS:C12:1,2019-02-03T14:35:00Z,27.4980,-83.7220,1017.36,1111122 
COMPS,ioos:station:USF.COMPS:C12:1,2019-02-03T15:05:00Z,27.4980,-83.7220,1017.36,1111122 
COMPS,ioos:station:USF.COMPS:C12:1,2019-02-03T15:35:00Z,27.4980,-83.7220,1017.7,1111122 
COMPS,ioos:station:USF.COMPS:C12:1,2019-02-03T16:05:00Z,27.4980,-83.7220,1017.62,1111122 
COMPS,ioos:station:USF.COMPS:C12:1,2019-02-03T16:35:00Z,27.4980,-83.7220,1017.67,1111122 
COMPS,ioos:station:USF.COMPS:C12:1,2019-02-03T17:05:00Z,27.4980,-83.7220,1017.33,1111122 
COMPS,ioos:station:USF.COMPS:C12:1,2019-02-03T17:35:00Z,27.4980,-83.7220,1017.12,1111122 
COMPS,ioos:station:USF.COMPS:C12:1,2019-02-03T18:05:00Z,27.4980,-83.7220,1016.71,1111122 
COMPS,ioos:station:USF.COMPS:C12:1,2019-02-03T18:35:00Z,27.4980,-83.7220,1016.23,1111122 
COMPS,ioos:station:USF.COMPS:C12:1,2019-02-03T19:05:00Z,27.4980,-83.7220,1015.93,1111122 
COMPS,ioos:station:USF.COMPS:C12:1,2019-02-03T19:35:00Z,27.4980,-83.7220,1015.71,1111122 
COMPS,ioos:station:USF.COMPS:C12:1,2019-02-03T20:05:00Z,27.4980,-83.7220,1015.71,1111122 
COMPS,ioos:station:USF.COMPS:C12:1,2019-02-03T20:35:00Z,27.4980,-83.7220,1015.49,1111122 
COMPS,ioos:station:USF.COMPS:C12:1,2019-02-03T21:05:00Z,27.4980,-83.7220,1015.39,1111122 
COMPS,ioos:station:USF.COMPS:C12:1,2019-02-03T21:35:00Z,27.4980,-83.7220,1015.24,1111122 
COMPS,ioos:station:USF.COMPS:C12:1,2019-02-03T22:05:00Z,27.4980,-83.7220,1015.35,1111122 
COMPS,ioos:station:USF.COMPS:C12:1,2019-02-03T22:35:00Z,27.4980,-83.7220,1015.48,1111122 
COMPS,ioos:station:USF.COMPS:C12:1,2019-02-03T23:05:00Z,27.4980,-83.7220,1015.61,1111122 
COMPS,ioos:station:USF.COMPS:C12:1,2019-02-03T23:35:00Z,27.4980,-83.7220,1015.59,1111122 
COMPS,ioos:station:USF.COMPS:C12:1,2019-02-04T00:05:00Z,27.4980,-83.7220,1015.69,1111122 
COMPS,ioos:station:USF.COMPS:C12:1,2019-02-04T00:35:00Z,27.4980,-83.7220,1016.0,1111122 
COMPS,ioos:station:USF.COMPS:C12:1,2019-02-04T01:05:00Z,27.4980,-83.7220,1016.14,1111122 
COMPS,ioos:station:USF.COMPS:C12:1,2019-02-04T01:35:00Z,27.4980,-83.7220,1016.33,1111122 
COMPS,ioos:station:USF.COMPS:C12:1,2019-02-04T02:05:00Z,27.4980,-83.7220,1016.58,1111122 
COMPS,ioos:station:USF.COMPS:C12:1,2019-02-04T02:35:00Z,27.4980,-83.7220,1016.77,1111122 
COMPS,ioos:station:USF.COMPS:C12:1,2019-02-04T03:05:00Z,27.4980,-83.7220,1017.08,1111122 
COMPS,ioos:station:USF.COMPS:C12:1,2019-02-04T03:35:00Z,27.4980,-83.7220,1017.19,1111122 
COMPS,ioos:station:USF.COMPS:C12:1,2019-02-04T04:05:00Z,27.4980,-83.7220,1017.3,1111122 
COMPS,ioos:station:USF.COMPS:C12:1,2019-02-04T04:35:00Z,27.4980,-83.7220,1017.21,1111122 
COMPS,ioos:station:USF.COMPS:C12:1,2019-02-04T05:05:00Z,27.4980,-83.7220,1017.15,1111122 
COMPS,ioos:station:USF.COMPS:C12:1,2019-02-04T05:35:00Z,27.4980,-83.7220,1017.23,1111122 
COMPS,ioos:station:USF.COMPS:C12:1,2019-02-04T06:05:00Z,27.4980,-83.7220,1017.07,1111122 
COMPS,ioos:station:USF.COMPS:C12:1,2019-02-04T06:35:00Z,27.4980,-83.7220,1016.93,1111122 
COMPS,ioos:station:USF.COMPS:C12:1,2019-02-04T07:05:00Z,27.4980,-83.7220,1016.91,1111122 
COMPS,ioos:station:USF.COMPS:C12:1,2019-02-04T07:35:00Z,27.4980,-83.7220,1016.46,1111122 
COMPS,ioos:station:USF.COMPS:C12:1,2019-02-04T08:05:00Z,27.4980,-83.7220,1016.47,1111122 
COMPS,ioos:station:USF.COMPS:C12:1,2019-02-04T08:35:00Z,27.4980,-83.7220,1016.21,1111122 
COMPS,ioos:station:USF.COMPS:C12:1,2019-02-04T09:05:00Z,27.4980,-83.7220,1016.28,1111122 
COMPS,ioos:station:USF.COMPS:C12:1,2019-02-04T09:35:00Z,27.4980,-83.7220,1016.45,1111122 
COMPS,ioos:station:USF.COMPS:C12:1,2019-02-04T10:05:00Z,27.4980,-83.7220,1016.58,1111122 
COMPS,ioos:station:USF.COMPS:C12:1,2019-02-04T10:35:00Z,27.4980,-83.7220,1016.57,1111122 
COMPS,ioos:station:USF.COMPS:C12:1,2019-02-04T11:05:00Z,27.4980,-83.7220,1016.84,1111122 
COMPS,ioos:station:USF.COMPS:C12:1,2019-02-04T11:35:00Z,27.4980,-83.7220,1017.07,1111122 
COMPS,ioos:station:USF.COMPS:C12:1,2019-02-04T12:05:00Z,27.4980,-83.7220,1017.37,1111122 
COMPS,ioos:station:USF.COMPS:C12:1,2019-02-04T12:35:00Z,27.4980,-83.7220,1017.73,1111122 
COMPS,ioos:station:USF.COMPS:C12:1,2019-02-04T13:05:00Z,27.4980,-83.7220,1018.01,1111122 
COMPS,ioos:station:USF.COMPS:C12:1,2019-02-04T13:35:00Z,27.4980,-83.7220,1018.3,1111122 
COMPS,ioos:station:USF.COMPS:C12:1,2019-02-04T14:05:00Z,27.4980,-83.7220,1018.5,1111122 
COMPS,ioos:station:USF.COMPS:C12:1,2019-02-04T14:35:00Z,27.4980,-83.7220,1018.95,1111122 
COMPS,ioos:station:USF.COMPS:C12:1,2019-02-04T15:05:00Z,27.4980,-83.7220,1019.18,1111122 
COMPS,ioos:station:USF.COMPS:C12:1,2019-02-04T15:35:00Z,27.4980,-83.7220,1019.28,1111122 
COMPS,ioos:station:USF.COMPS:C12:1,2019-02-04T16:05:00Z,27.4980,-83.7220,1019.29,1111122 
COMPS,ioos:station:USF.COMPS:C12:1,2019-02-04T16:35:00Z,27.4980,-83.7220,1019.04,1111122 
COMPS,ioos:station:USF.COMPS:C12:1,2019-02-04T17:05:00Z,27.4980,-83.7220,1018.8,1111122 
COMPS,ioos:station:USF.COMPS:C12:1,2019-02-04T17:35:00Z,27.4980,-83.7220,1018.64,1111122 
COMPS,ioos:station:USF.COMPS:C12:1,2019-02-04T18:05:00Z,27.4980,-83.7220,1018.27,1111122 
COMPS,ioos:station:USF.COMPS:C12:1,2019-02-04T18:35:00Z,27.4980,-83.7220,1017.97,1111122 
COMPS,ioos:station:USF.COMPS:C12:1,2019-02-04T19:05:00Z,27.4980,-83.7220,1017.55,1111122 
COMPS,ioos:station:USF.COMPS:C12:1,2019-02-04T19:35:00Z,27.4980,-83.7220,1017.41,1111122 
COMPS,ioos:station:USF.COMPS:C12:1,2019-02-04T20:05:00Z,27.4980,-83.7220,1017.28,1111122 
COMPS,ioos:station:USF.COMPS:C12:1,2019-02-04T20:35:00Z,27.4980,-83.7220,1017.13,1111122 
COMPS,ioos:station:USF.COMPS:C12:1,2019-02-04T21:05:00Z,27.4980,-83.7220,1017.21,1111122 
COMPS,ioos:station:USF.COMPS:C12:1,2019-02-04T21:35:00Z,27.4980,-83.7220,1017.3,1111122 
COMPS,ioos:station:USF.COMPS:C12:1,2019-02-04T22:05:00Z,27.4980,-83.7220,1017.41,1111122 
COMPS,ioos:station:USF.COMPS:C12:1,2019-02-04T22:35:00Z,27.4980,-83.7220,1017.48,1111122 
COMPS,ioos:station:USF.COMPS:C12:1,2019-02-04T23:05:00Z,27.4980,-83.7220,1017.45,1111122 
COMPS,ioos:station:USF.COMPS:C12:1,2019-02-04T23:35:00Z,27.4980,-83.7220,1017.64,1111122 
COMPS,ioos:station:USF.COMPS:C12:1,2019-02-05T01:05:00Z,27.4980,-83.7220,1017.82,1111122 
COMPS,ioos:station:USF.COMPS:C12:1,2019-02-05T01:35:00Z,27.4980,-83.7220,1017.78,1111122 
COMPS,ioos:station:USF.COMPS:C12:1,2019-02-05T02:05:00Z,27.4980,-83.7220,1018.07,1111122 
COMPS,ioos:station:USF.COMPS:C12:1,2019-02-05T02:35:00Z,27.4980,-83.7220,1018.21,1111122 
COMPS,ioos:station:USF.COMPS:C12:1,2019-02-05T03:05:00Z,27.4980,-83.7220,1018.5,1111122 
COMPS,ioos:station:USF.COMPS:C12:1,2019-02-05T03:35:00Z,27.4980,-83.7220,1018.61,1111122 
COMPS,ioos:station:USF.COMPS:C12:1,2019-02-05T04:05:00Z,27.4980,-83.7220,1018.49,1111122 
COMPS,ioos:station:USF.COMPS:C12:1,2019-02-05T04:35:00Z,27.4980,-83.7220,1018.29,1111122 
COMPS,ioos:station:USF.COMPS:C12:1,2019-02-05T05:05:00Z,27.4980,-83.7220,1018.2,1111122 
COMPS,ioos:station:USF.COMPS:C12:1,2019-02-05T05:35:00Z,27.4980,-83.7220,1018.07,1111122 
COMPS,ioos:station:USF.COMPS:C12:1,2019-02-05T06:05:00Z,27.4980,-83.7220,1018.06,1111122 
COMPS,ioos:station:USF.COMPS:C12:1,2019-02-05T06:35:00Z,27.4980,-83.7220,1018.06,1111122 
COMPS,ioos:station:USF.COMPS:C12:1,2019-02-05T07:05:00Z,27.4980,-83.7220,1018.15,1111122 
COMPS,ioos:station:USF.COMPS:C12:1,2019-02-05T07:35:00Z,27.4980,-83.7220,1017.85,1111122 
COMPS,ioos:station:USF.COMPS:C12:1,2019-02-05T08:05:00Z,27.4980,-83.7220,1017.62,1111122 
COMPS,ioos:station:USF.COMPS:C12:1,2019-02-05T08:35:00Z,27.4980,-83.7220,1017.41,1111122 
COMPS,ioos:station:USF.COMPS:C12:1,2019-02-05T09:05:00Z,27.4980,-83.7220,1017.57,1111122 
COMPS,ioos:station:USF.COMPS:C12:1,2019-02-05T09:35:00Z,27.4980,-83.7220,1017.81,1111122 
COMPS,ioos:station:USF.COMPS:C12:1,2019-02-05T10:05:00Z,27.4980,-83.7220,1017.85,1111122 
COMPS,ioos:station:USF.COMPS:C12:1,2019-02-05T10:35:00Z,27.4980,-83.7220,1018.07,1111122 
COMPS,ioos:station:USF.COMPS:C12:1,2019-02-05T11:05:00Z,27.4980,-83.7220,1018.23,1111122 
COMPS,ioos:station:USF.COMPS:C12:1,2019-02-05T11:35:00Z,27.4980,-83.7220,1018.62,1111122 
COMPS,ioos:station:USF.COMPS:C12:1,2019-02-05T12:05:00Z,27.4980,-83.7220,1018.7,1111122 
COMPS,ioos:station:USF.COMPS:C12:1,2019-02-05T12:35:00Z,27.4980,-83.7220,1018.91,1111122 
COMPS,ioos:station:USF.COMPS:C12:1,2019-02-05T13:05:00Z,27.4980,-83.7220,1019.52,1111122 
COMPS,ioos:station:USF.COMPS:C12:1,2019-02-05T13:35:00Z,27.4980,-83.7220,1020.36,1111122 
COMPS,ioos:station:USF.COMPS:C12:1,2019-02-05T14:05:00Z,27.4980,-83.7220,1020.94,1111122 
COMPS,ioos:station:USF.COMPS:C12:1,2019-02-05T14:35:00Z,27.4980,-83.7220,1021.37,1111122 
COMPS,ioos:station:USF.COMPS:C12:1,2019-02-05T15:05:00Z,27.4980,-83.7220,1021.38,1111122 
COMPS,ioos:station:USF.COMPS:C12:1,2019-02-05T15:35:00Z,27.4980,-83.7220,1021.45,1111122 
COMPS,ioos:station:USF.COMPS:C12:1,2019-02-05T16:05:00Z,27.4980,-83.7220,1021.35,1111122 
COMPS,ioos:station:USF.COMPS:C12:1,2019-02-05T16:35:00Z,27.4980,-83.7220,1021.31,1111122 
COMPS,ioos:station:USF.COMPS:C12:1,2019-02-05T17:05:00Z,27.4980,-83.7220,1021.23,1111122 
COMPS,ioos:station:USF.COMPS:C12:1,2019-02-05T17:35:00Z,27.4980,-83.7220,1021.03,1111122 
COMPS,ioos:station:USF.COMPS:C12:1,2019-02-05T18:05:00Z,27.4980,-83.7220,1020.92,1111122 
COMPS,ioos:station:USF.COMPS:C12:1,2019-02-05T18:35:00Z,27.4980,-83.7220,1020.41,1111122 
COMPS,ioos:station:USF.COMPS:C12:1,2019-02-05T19:05:00Z,27.4980,-83.7220,1020.4,1111122 
COMPS,ioos:station:USF.COMPS:C12:1,2019-02-05T19:35:00Z,27.4980,-83.7220,1019.76,1111122 
COMPS,ioos:station:USF.COMPS:C12:1,2019-02-05T20:05:00Z,27.4980,-83.7220,1019.23,1111122 
COMPS,ioos:station:USF.COMPS:C12:1,2019-02-05T20:35:00Z,27.4980,-83.7220,1019.37,1111122 
COMPS,ioos:station:USF.COMPS:C12:1,2019-02-05T21:05:00Z,27.4980,-83.7220,1019.11,1111122 
COMPS,ioos:station:USF.COMPS:C12:1,2019-02-05T21:35:00Z,27.4980,-83.7220,1018.99,1111122 
COMPS,ioos:station:USF.COMPS:C12:1,2019-02-05T22:05:00Z,27.4980,-83.7220,1018.97,1111122 
COMPS,ioos:station:USF.COMPS:C12:1,2019-02-05T22:35:00Z,27.4980,-83.7220,1019.14,1111122 
COMPS,ioos:station:USF.COMPS:C12:1,2019-02-05T23:05:00Z,27.4980,-83.7220,1019.17,1111122 
COMPS,ioos:station:USF.COMPS:C12:1,2019-02-05T23:35:00Z,27.4980,-83.7220,1019.38,1111122 
COMPS,ioos:station:USF.COMPS:C12:1,2019-02-06T00:05:00Z,27.4980,-83.7220,1019.3,1111122 
COMPS,ioos:station:USF.COMPS:C12:1,2019-02-06T00:35:00Z,27.4980,-83.7220,1019.25,1111122 
COMPS,ioos:station:USF.COMPS:C12:1,2019-02-06T01:05:00Z,27.4980,-83.7220,1019.42,1111122 
COMPS,ioos:station:USF.COMPS:C12:1,2019-02-06T01:35:00Z,27.4980,-83.7220,1019.63,1111122 
COMPS,ioos:station:USF.COMPS:C12:1,2019-02-06T02:05:00Z,27.4980,-83.7220,1020.01,1111122 
COMPS,ioos:station:USF.COMPS:C12:1,2019-02-06T02:35:00Z,27.4980,-83.7220,1020.17,1111122 
COMPS,ioos:station:USF.COMPS:C12:1,2019-02-06T03:05:00Z,27.4980,-83.7220,1020.39,1111122 
COMPS,ioos:station:USF.COMPS:C12:1,2019-02-06T03:35:00Z,27.4980,-83.7220,1020.46,1111122 
COMPS,ioos:station:USF.COMPS:C12:1,2019-02-06T04:05:00Z,27.4980,-83.7220,1020.67,1111122 
COMPS,ioos:station:USF.COMPS:C12:1,2019-02-06T04:35:00Z,27.4980,-83.7220,1020.71,1111122 
COMPS,ioos:station:USF.COMPS:C12:1,2019-02-06T05:05:00Z,27.4980,-83.7220,1020.74,1111122 
COMPS,ioos:station:USF.COMPS:C12:1,2019-02-06T05:35:00Z,27.4980,-83.7220,1020.58,1111122 
COMPS,ioos:station:USF.COMPS:C12:1,2019-02-06T06:05:00Z,27.4980,-83.7220,1020.42,1111122 
COMPS,ioos:station:USF.COMPS:C12:1,2019-02-06T06:35:00Z,27.4980,-83.7220,1020.1,1111122 
COMPS,ioos:station:USF.COMPS:C12:1,2019-02-06T07:05:00Z,27.4980,-83.7220,1020.1,1111122 
COMPS,ioos:station:USF.COMPS:C12:1,2019-02-06T07:35:00Z,27.4980,-83.7220,1019.94,1111122 
COMPS,ioos:station:USF.COMPS:C12:1,2019-02-06T08:05:00Z,27.4980,-83.7220,1020.18,1111122 
COMPS,ioos:station:USF.COMPS:C12:1,2019-02-06T08:35:00Z,27.4980,-83.7220,1020.05,1111122 
COMPS,ioos:station:USF.COMPS:C12:1,2019-02-06T09:05:00Z,27.4980,-83.7220,1020.01,1111122 
COMPS,ioos:station:USF.COMPS:C12:1,2019-02-06T09:35:00Z,27.4980,-83.7220,1020.09,1111122 
COMPS,ioos:station:USF.COMPS:C12:1,2019-02-06T10:05:00Z,27.4980,-83.7220,1019.71,1111122 
COMPS,ioos:station:USF.COMPS:C12:1,2019-02-06T10:35:00Z,27.4980,-83.7220,1019.96,1111122 
COMPS,ioos:station:USF.COMPS:C12:1,2019-02-06T11:05:00Z,27.4980,-83.7220,1020.28,1111122 
COMPS,ioos:station:USF.COMPS:C12:1,2019-02-06T11:35:00Z,27.4980,-83.7220,1020.55,1111122 
COMPS,ioos:station:USF.COMPS:C12:1,2019-02-06T12:05:00Z,27.4980,-83.7220,1020.69,1111122 
COMPS,ioos:station:USF.COMPS:C12:1,2019-02-06T12:35:00Z,27.4980,-83.7220,1020.84,1111122 
COMPS,ioos:station:USF.COMPS:C12:1,2019-02-06T13:05:00Z,27.4980,-83.7220,1021.36,1111122 
COMPS,ioos:station:USF.COMPS:C12:1,2019-02-06T13:35:00Z,27.4980,-83.7220,1021.51,1111122 